Tracking 33747 objects as of 12-Apr-2026
HD Live streaming from Space Station
objects crossing your sky now

STARLINK-36918

Track STARLINK-36918 now!
10-day predictions
STARLINK-36918 is classified as:


NORAD ID: 67956
Int'l Code: 2026-037AA
Perigee: 488.8 km
Apogee: 491.4 km
Inclination: 43.0 °
Period: 94.3 minutes
Semi major axis: 6861 km
RCS: Unknown
Launch date: February 24, 2026
Source: United States (US)
Launch site: AIR FORCE EASTERN TEST RANGE (AFETR)
Your satellite tracking list
Your tracking list is empty




NASA's NSSDC Master Catalog

Two Line Element Set (TLE):
1 67956U 26037AA  26101.13671284  .00020544  00000-0  75328-3 0  9996
2 67956  43.0034   7.4275 0001905 262.1787  97.8848 15.27611743  8304
Source of the keplerian elements: AFSPC